Wind_Speed
18 16 17 14 12 11 10 11 11 11 10 11 12 11 11 11 12 14 14 16 18 19 20 25 26 25 25 25 24 19 24 21 24 23 25 22 17 13 14 14 11 12 14
23 23 16 16 14 15 13 14 13 11 11 8 7 7 6 6 8 9 11 12 16 19 22 24 27 28 23 21 21 23 20 16 19 25 26 20 16 14 14 15 13 11 14
30 30 27 23 24 22 20 18 15 13 14 13 11 9 7 5 6 6 9 12 15 18 21 24 26 26 23 24 24 21 19 19 22 26 26 21 17 16 13 14 13 11 13
31 32 30 28 27 27 25 22 19 13 12 13 14 13 11 11 12 12 13 15 17 21 22 23 25 23 22 21 28 26 25 19 22 33 31 26 19 16 15 14 13 11 14
18 29 35 32 31 29 29 27 24 19 16 15 15 13 12 12 15 16 16 18 20 23 23 23 25 25 22 22 22 26 25 26 26 35 32 29 19 17 15 13 12 11 12
20 21 23 33 36 35 34 31 29 24 22 20 19 18 17 15 13 16 20 23 24 24 27 26 25 25 26 23 22 20 23 27 29 32 29 25 16 15 12 13 12 11 10
16 21 19 24 27 29 31 32 31 29 27 25 23 22 23 24 23 24 23 26 28 28 30 29 28 26 27 26 21 20 22 24 23 22 24 16 13 11 10 13 12 10 6
29 26 28 23 22 24 27 30 29 27 27 27 27 28 29 30 32 32 33 33 31 31 29 28 28 30 29 26 22 22 21 19 18 18 15 10 11 10 10 10 8 8 6
44 41 35 32 32 31 31 32 31 30 30 30 32 34 37 38 36 36 35 32 31 30 28 28 28 31 30 25 24 24 20 19 17 14 14 14 14 12 12 13 12 8 7
53 52 47 44 44 42 41 41 40 39 38 38 41 41 39 42 40 40 35 28 30 27 27 29 29 29 28 22 25 20 15 16 17 11 17 18 14 13 12 11 9 7 8
47 45 48 46 49 52 50 48 46 45 43 43 43 44 44 41 39 39 34 29 27 26 26 29 30 27 23 22 20 15 12 14 14 14 19 19 15 14 12 11 10 8 9
49 50 50 50 45 43 44 48 45 41 40 41 39 40 40 40 38 35 30 29 22 26 24 29 30 24 22 17 17 17 15 15 14 16 21 20 17 15 13 10 9 9 10
46 45 42 40 39 41 41 42 40 38 38 37 35 35 37 38 37 32 26 27 21 25 24 30 29 22 22 18 16 15 15 13 15 21 22 18 15 14 13 12 10 10 11
48 44 40 39 38 32 36 39 38 39 38 36 35 36 38 37 34 30 27 24 23 25 26 32 26 24 20 18 17 17 15 18 23 21 19 17 17 16 14 12 10 13 13
44 42 41 39 40 44 43 38 40 43 41 37 38 38 35 31 29 26 25 23 27 22 28 28 27 26 25 27 22 19 18 23 23 21 20 19 18 16 14 13 12 14 14
37 38 37 35 27 31 33 36 36 36 36 37 35 33 30 26 21 22 23 23 24 22 23 26 28 24 30 27 23 22 27 24 22 21 20 18 18 16 14 13 14 13 11
32 32 32 34 32 32 35 40 38 42 36 30 25 24 25 25 25 24 21 19 19 21 26 25 23 27 32 24 24 30 28 21 20 21 20 19 17 16 14 15 13 11 10
28 31 28 30 31 31 30 28 29 29 29 30 29 28 28 27 28 24 24 22 22 24 24 22 24 30 34 27 31 30 28 26 24 22 22 20 19 19 18 16 13 9 9
21 28 26 26 26 26 25 24 23 24 24 25 25 27 28 28 30 29 27 27 25 23 24 26 24 24 26 26 26 24 23 24 21 22 23 21 18 20 17 16 12 10 9
21 23 24 26 25 22 21 21 21 22 24 24 23 22 23 26 29 30 29 27 25 22 26 25 23 21 25 22 22 21 22 21 22 23 23 20 18 17 16 13 12 12 11
18 23 26 21 19 19 21 23 22 21 21 21 21 18 17 20 24 27 28 27 25 26 25 23 24 25 22 23 23 24 24 23 22 23 21 19 19 18 15 13 10 11 12
15 17 19 21 21 20 18 18 20 21 23 23 20 17 13 14 18 23 26 27 28 27 26 23 23 23 24 26 25 24 24 24 23 21 21 20 18 16 16 13 12 10 11
13 16 18 20 22 22 22 23 23 20 20 20 16 17 16 15 19 23 28 29 26 23 23 26 25 27 26 25 25 24 24 22 21 21 21 19 16 15 14 14 13 12 10
0 8 13 15 20 24 23 21 22 24 21 19 20 17 16 20 21 23 19 17 14 23 28 26 27 28 28 26 25 23 18 18 20 19 16 14 15 14 16 14 13 15 15
18 19 16 16 17 17 23 23 19 21 21 20 20 26 18 22 20 20 22 24 29 29 29 29 28 29 27 26 23 20 18 18 19 19 15 14 15 17 16 17 17 15 13
16 14 14 15 17 19 20 21 20 20 21 20 18 22 25 21 16 21 27 29 30 30 30 29 27 26 25 24 21 19 19 18 19 18 18 17 17 17 18 16 16 15 14
Wind_Direction
204 210 199 196 198 201 213 213 205 201 205 211 215 219 227 236 244 251 257 262 267 268 272 277 285 292 291 292 299 279 277 278 275 294 292 299 295 298 302 301 269 269 286
202 201 201 203 210 217 221 216 217 219 213 195 189 190 206 233 250 265 275 281 285 282 280 284 287 292 296 284 310 299 291 290 290 291 292 290 286 287 297 287 261 275 292
211 208 207 210 214 220 226 227 229 237 227 225 222 220 222 235 259 273 299 312 318 310 298 297 296 298 295 292 288 301 296 288 294 287 296 281 280 283 286 282 258 281 291
243 237 224 220 226 231 233 235 235 232 229 233 236 242 250 254 256 265 282 295 307 312 308 303 300 294 289 290 282 281 274 283 293 284 288 268 267 273 271 267 258 279 287
267 244 243 230 233 234 237 239 237 237 239 237 239 241 253 273 272 273 276 284 292 298 303 294 305 291 282 267 265 269 268 269 262 267 269 255 260 264 267 251 256 272 286
261 253 243 242 241 239 236 231 230 232 234 235 240 240 252 272 268 272 276 278 284 288 295 294 290 294 282 277 270 270 265 260 256 259 249 248 259 262 244 235 249 261 284
236 235 236 238 233 226 226 230 231 232 236 238 241 249 258 266 270 278 281 283 279 280 288 293 286 290 286 283 281 273 261 256 251 250 246 244 255 244 236 237 248 262 262
259 249 228 228 238 235 230 232 232 233 236 241 247 256 264 268 273 279 284 284 280 274 280 287 291 284 288 286 288 280 268 256 241 240 244 259 218 212 227 240 233 233 214
268 263 248 239 245 242 238 240 245 246 250 254 258 262 266 272 278 283 287 282 270 266 271 280 287 281 287 285 283 282 266 246 231 243 247 227 208 215 227 228 230 236 218
263 262 264 257 253 249 246 246 249 250 254 257 260 267 274 278 282 285 288 268 260 260 264 273 282 281 287 282 277 264 253 221 226 241 253 227 212 218 221 228 228 224 208
261 257 256 255 254 255 254 253 251 255 257 260 263 267 271 272 276 280 280 250 254 260 259 272 282 283 281 271 253 231 213 207 238 253 249 224 209 216 223 224 216 211 191
255 255 254 253 249 245 247 253 254 250 251 256 261 264 261 264 267 269 267 239 253 255 257 272 280 284 275 258 239 221 207 209 226 253 243 208 209 216 213 207 204 199 194
245 247 246 251 251 245 241 244 240 237 233 243 252 254 255 259 261 258 251 234 247 253 259 270 277 272 270 240 213 213 220 228 243 236 216 206 210 208 199 198 195 199 201
238 236 236 236 230 229 230 230 229 231 237 244 251 251 256 260 260 247 240 225 245 252 259 266 268 261 263 217 212 218 226 228 231 221 212 203 203 198 195 198 191 196 190
231 234 236 231 237 237 231 232 235 239 246 244 247 254 254 251 251 236 228 220 246 257 259 262 259 248 219 211 216 219 235 235 205 202 201 200 199 195 191 192 189 192 191
221 219 216 216 210 214 216 221 228 239 238 248 252 251 246 241 242 225 227 238 246 258 265 257 251 223 204 205 210 225 231 208 193 197 199 202 198 189 186 185 193 195 190
205 200 210 217 221 224 228 231 234 237 243 237 232 234 232 235 235 232 235 234 242 254 259 255 229 207 189 194 217 226 210 199 202 200 197 192 183 177 172 182 185 186 176
201 204 203 206 204 209 217 221 226 227 223 227 230 231 234 236 228 224 229 238 245 248 255 234 216 204 194 217 217 210 198 206 208 202 195 183 181 182 179 180 168 161 159
178 191 192 200 209 216 218 221 223 223 225 229 234 234 232 227 222 224 228 235 241 249 238 211 209 197 207 210 205 202 201 203 205 194 180 179 186 180 178 172 172 174 181
184 187 192 198 201 207 215 217 222 227 232 235 236 234 228 224 224 224 226 226 237 238 211 200 181 191 198 196 193 186 182 180 174 171 171 172 175 179 179 173 183 194 183
178 186 190 198 205 211 216 219 220 220 229 229 226 220 228 226 224 221 218 223 219 205 185 174 187 186 182 178 170 164 163 167 167 162 166 171 174 167 171 180 187 184 197
171 183 193 201 207 210 212 213 215 217 214 220 221 208 215 204 215 211 205 201 191 182 173 181 187 176 175 169 167 165 163 163 165 170 170 167 170 176 177 183 180 173 170
185 197 196 200 200 206 213 216 214 216 221 216 209 206 217 204 203 197 188 183 179 173 174 184 174 169 166 164 160 159 159 164 168 170 167 172 175 178 179 176 179 172 173
15 208 207 217 234 223 215 214 206 209 213 227 192 188 192 185 181 177 167 173 178 177 169 165 168 166 162 162 162 162 166 171 174 171 177 178 170 171 166 166 165 161 156
120 130 143 159 149 153 161 182 180 187 194 188 194 195 187 191 169 161 186 167 164 162 160 160 161 162 161 160 160 166 172 174 173 173 176 175 170 160 161 163 162 165 164
96 115 125 133 139 142 147 154 165 174 174 174 173 185 195 185 196 188 162 159 157 155 157 159 160 160 164 169 175 176 169 167 169 171 170 168 168 163 164 167 163 158 152
Height
1415 1419 1422 1426 1430 1434 1437 1440 1442 1445 1447 1449 1451 1453 1456 1458 1460 1462 1464 1466 1468 1468 1470 1472 1473 1474 1473 1473 1472 1474 1474 1474 1472 1469 1469 1469 1469 1468 1468 1468 1468 1471 1471
1412 1416 1418 1422 1426 1429 1433 1436 1439 1442 1444 1446 1447 1450 1452 1454 1457 1459 1461 1462 1464 1463 1465 1465 1467 1468 1467 1466 1466 1469 1468 1469 1468 1466 1464 1465 1465 1465 1464 1465 1466 1467 1467
1408 1411 1414 1417 1421 1425 1428 1432 1435 1437 1440 1442 1444 1446 1449 1451 1453 1455 1457 1458 1458 1459 1459 1460 1461 1461 1460 1459 1460 1463 1463 1464 1464 1464 1461 1461 1461 1461 1460 1462 1462 1462 1463
1403 1407 1409 1413 1417 1421 1425 1428 1430 1432 1434 1437 1439 1442 1444 1447 1449 1450 1451 1452 1453 1453 1454 1455 1455 1455 1454 1454 1454 1457 1459 1457 1456 1458 1457 1457 1456 1456 1456 1458 1459 1458 1460
1396 1398 1402 1407 1411 1415 1419 1422 1425 1427 1429 1432 1434 1437 1439 1441 1443 1444 1446 1447 1449 1449 1450 1450 1449 1449 1448 1448 1448 1448 1451 1450 1452 1451 1453 1451 1450 1451 1452 1454 1456 1455 1455
1390 1391 1394 1398 1402 1406 1410 1415 1418 1421 1423 1425 1428 1431 1433 1436 1438 1440 1442 1443 1444 1444 1444 1444 1444 1442 1441 1441 1441 1441 1442 1442 1442 1444 1444 1445 1446 1448 1449 1450 1453 1452 1452
1383 1385 1387 1390 1394 1397 1402 1407 1410 1414 1417 1419 1421 1424 1427 1429 1432 1434 1435 1436 1436 1436 1437 1437 1436 1436 1435 1434 1434 1434 1435 1435 1433 1437 1438 1439 1441 1444 1446 1448 1449 1450 1447
1375 1376 1378 1382 1387 1390 1394 1399 1404 1407 1409 1412 1414 1416 1419 1421 1424 1426 1427 1427 1427 1428 1429 1430 1429 1427 1428 1428 1427 1425 1426 1427 1428 1432 1435 1435 1438 1440 1443 1447 1447 1446 1444
1362 1364 1367 1372 1378 1382 1384 1390 1396 1398 1400 1403 1406 1408 1410 1412 1415 1416 1418 1418 1418 1419 1421 1422 1422 1420 1421 1421 1420 1418 1419 1421 1425 1428 1430 1433 1434 1436 1441 1443 1442 1442 1443
1347 1352 1355 1362 1367 1371 1373 1379 1385 1388 1390 1394 1395 1398 1400 1401 1404 1406 1408 1409 1409 1411 1413 1414 1415 1415 1415 1415 1413 1412 1413 1418 1422 1423 1426 1430 1430 1435 1438 1439 1438 1440 1442
1335 1340 1343 1348 1353 1357 1363 1368 1372 1376 1380 1382 1385 1389 1391 1393 1395 1396 1399 1400 1401 1404 1405 1407 1407 1408 1409 1408 1407 1407 1409 1415 1420 1420 1424 1424 1429 1433 1434 1435 1436 1438 1441
1319 1322 1326 1332 1338 1343 1348 1352 1358 1364 1368 1371 1375 1378 1381 1384 1386 1387 1389 1392 1395 1396 1398 1400 1400 1402 1402 1402 1403 1404 1406 1409 1415 1418 1419 1422 1427 1429 1431 1432 1434 1437 1441
1303 1307 1312 1317 1322 1328 1335 1340 1346 1352 1358 1362 1366 1368 1370 1375 1377 1380 1381 1385 1387 1389 1392 1393 1394 1395 1396 1397 1399 1402 1404 1403 1410 1414 1416 1421 1424 1427 1428 1429 1431 1436 1440
1286 1294 1301 1307 1313 1319 1324 1329 1334 1340 1346 1350 1354 1358 1362 1365 1367 1370 1374 1378 1380 1382 1384 1385 1386 1388 1390 1392 1395 1398 1399 1401 1406 1411 1416 1420 1422 1424 1425 1428 1430 1435 1439
1271 1279 1288 1296 1301 1308 1315 1319 1324 1328 1336 1341 1346 1351 1353 1356 1359 1363 1368 1370 1373 1375 1376 1376 1378 1379 1381 1384 1388 1390 1394 1398 1404 1410 1413 1416 1419 1422 1424 1427 1431 1435 1438
1260 1268 1276 1286 1292 1299 1305 1311 1317 1322 1328 1334 1338 1341 1345 1349 1353 1356 1360 1363 1367 1368 1368 1368 1367 1370 1375 1380 1384 1387 1390 1396 1400 1406 1410 1413 1416 1420 1423 1426 1432 1434 1436
1252 1260 1270 1278 1286 1292 1298 1304 1309 1315 1321 1325 1329 1333 1337 1342 1345 1349 1354 1357 1360 1360 1359 1359 1360 1364 1371 1376 1377 1382 1388 1393 1398 1403 1407 1411 1415 1419 1422 1427 1430 1432 1434
1249 1259 1267 1273 1281 1287 1292 1298 1304 1308 1312 1316 1321 1325 1329 1334 1338 1343 1347 1350 1351 1352 1352 1353 1356 1361 1368 1371 1375 1380 1385 1391 1396 1400 1404 1409 1412 1417 1422 1426 1428 1431 1433
1248 1257 1264 1271 1278 1284 1290 1295 1299 1303 1306 1311 1315 1319 1323 1327 1331 1335 1339 1341 1342 1344 1346 1347 1352 1358 1364 1369 1374 1378 1383 1388 1393 1397 1403 1408 1411 1416 1420 1424 1427 1429 1432
1251 1257 1264 1270 1276 1282 1287 1291 1295 1299 1303 1305 1308 1312 1315 1320 1323 1326 1329 1334 1336 1338 1340 1344 1350 1356 1363 1368 1372 1377 1381 1387 1392 1397 1402 1408 1412 1416 1420 1423 1426 1428 1431
1255 1259 1265 1270 1275 1279 1284 1287 1292 1296 1299 1302 1304 1307 1309 1313 1316 1318 1322 1327 1330 1332 1337 1344 1350 1355 1362 1367 1372 1377 1382 1388 1393 1398 1403 1407 1412 1415 1419 1422 1424 1427 1430
1256 1261 1265 1269 1274 1278 1282 1286 1289 1293 1296 1298 1301 1303 1306 1307 1309 1312 1316 1321 1326 1332 1338 1344 1349 1355 1362 1367 1373 1378 1383 1388 1393 1398 1403 1407 1411 1415 1418 1421 1424 1427 1429
1256 1260 1264 1266 1271 1275 1280 1284 1287 1291 1294 1297 1300 1303 1305 1306 1308 1311 1314 1319 1326 1333 1337 1346 1352 1357 1364 1370 1375 1380 1385 1389 1394 1399 1403 1406 1410 1414 1418 1421 1424 1426 1429
1254 1259 1260 1264 1267 1272 1277 1281 1286 1289 1294 1297 1301 1304 1305 1306 1308 1313 1318 1324 1327 1332 1341 1347 1353 1359 1365 1371 1376 1382 1387 1391 1395 1399 1403 1406 1410 1414 1417 1420 1423 1426 1429
1263 1263 1265 1266 1268 1270 1274 1279 1283 1287 1292 1297 1300 1304 1306 1309 1312 1312 1319 1322 1332 1338 1343 1349 1355 1361 1367 1372 1378 1383 1387 1391 1395 1399 1403 1407 1410 1414 1417 1420 1423 1426 1429
1271 1272 1272 1272 1274 1276 1278 1281 1285 1288 1291 1295 1299 1303 1307 1311 1315 1321 1325 1330 1335 1340 1346 1352 1357 1363 1369 1374 1379 1383 1387 1391 1395 1399 1403 1406 1410 1413 1417 1420 1424 1426 1429